Date,TemperatureHighF,TemperatureAvgF,TemperatureLowF,DewpointHighF,DewpointAvgF,DewpointLowF,HumidityHigh,HumidityAvg,HumidityLow,PressureMaxIn,PressureMinIn,WindSpeedMaxMPH,WindSpeedAvgMPH,GustSpeedMaxMPH,PrecipitationSumIn
2013-1-1,15,4,-10,7,-4,-17,82,70,43,0.00,40.00,8,4,15,0.00
2013-1-2,19,15,11,12,10,7,88,81,70,0.00,40.00,5,3,12,0.00
2013-1-3,23,16,10,15,10,4,87,76,55,0.00,40.00,10,6,20,0.00
2013-1-4,36,18,1,18,10,-4,87,72,44,0.00,40.00,8,4,18,0.00
2013-1-5,34,16,-1,16,8,-7,87,73,44,0.00,40.00,6,2,12,0.00
2013-1-6,30,21,13,21,14,6,90,75,51,0.00,40.00,8,4,15,0.00
2013-1-7,36,25,14,21,16,3,81,68,54,0.00,40.00,12,7,25,0.00
2013-1-8,39,24,4,28,17,-1,89,77,52,0.00,40.00,12,3,21,0.00
2013-1-9,35,29,19,27,20,14,81,70,52,0.00,40.00,12,7,25,0.00
2013-1-10,43,32,17,32,15,10,95,56,25,0.00,40.00,6,4,18,0.14
2013-1-11,39,36,34,39,35,33,99,97,94,0.00,40.00,6,4,15,0.18
2013-1-12,42,24,11,42,19,2,99,79,66,0.00,40.00,13,8,31,0.04
2013-1-13,11,8,3,4,0,-2,78,70,57,0.00,40.00,6,5,13,0.01
2013-1-14,9,3,-1,0,-3,-6,78,75,66,0.00,40.00,7,4,14,0.00
2013-1-15,26,15,2,14,5,-4,81,66,41,0.00,40.00,10,6,20,0.00
2013-1-16,27,20,7,24,12,-4,92,72,48,0.00,40.00,11,7,25,0.00
2013-1-17,8,1,-9,-4,-8,-16,77,64,49,0.00,40.00,8,4,16,0.00
2013-1-18,27,14,-10,22,9,-17,90,81,70,0.00,40.00,5,2,13,0.00
2013-1-19,32,19,1,27,14,-6,92,81,65,0.00,40.00,14,6,31,0.03
2013-1-20,4,-2,-8,-6,-11,-15,72,65,48,0.00,40.00,13,6,25,0.01
2013-1-21,-8,-14,-18,-15,-25,-29,71,57,42,0.00,40.00,10,6,20,0.00
2013-1-22,1,-12,-23,-19,-24,-32,64,55,38,0.00,40.00,7,4,13,0.00
2013-1-23,8,-6,-21,-3,-14,-30,72,67,56,0.00,40.00,11,5,24,0.00
2013-1-24,6,-4,-23,-1,-15,-32,77,61,47,0.00,40.00,6,3,12,0.00
2013-1-25,15,10,5,8,4,-1,81,76,69,0.00,40.00,7,4,14,0.00
2013-1-26,21,12,2,9,4,-3,81,70,56,0.00,40.00,4,3,12,0.02
2013-1-27,33,24,16,25,16,7,94,73,50,0.00,40.00,5,4,13,0.04
2013-1-28,39,29,20,30,26,18,95,88,69,0.00,40.00,4,1,8,0.38
2013-1-29,33,31,26,32,29,21,98,93,81,0.00,40.00,10,5,21,0.12
2013-1-30,25,17,8,20,12,3,85,81,77,0.00,40.00,10,8,22,0.01
2013-1-31,8,4,-1,0,-4,-8,77,71,66,0.00,40.00,9,7,19,0.00
2013-2-1,1,-7,-18,-10,-18,-26,72,59,45,0.00,40.00,7,4,12,0.00
2013-2-2,15,1,-16,-5,-10,-24,72,59,38,0.00,40.00,5,2,9,0.01
2013-2-3,11,2,-14,-2,-7,-21,76,67,46,0.00,40.00,8,4,16,0.01
2013-2-4,15,2,-25,-7,-14,-34,68,49,28,0.00,40.00,6,3,11,0.00
2013-2-5,20,10,-6,11,4,-12,86,75,53,0.00,40.00,8,4,16,0.00
2013-2-6,20,9,-10,17,4,-17,91,79,68,0.00,40.00,4,2,8,0.00
2013-2-7,22,20,17,19,17,12,91,88,82,0.00,40.00,7,5,16,0.00
2013-2-8,29,17,7,12,9,3,85,72,41,0.00,40.00,7,2,14,0.13
2013-2-9,23,17,5,18,12,1,92,82,70,0.00,40.00,9,4,16,0.02
2013-2-10,32,27,20,32,26,18,98,95,92,0.00,40.00,10,4,20,0.00
2013-2-11,32,25,19,32,22,15,98,90,83,0.00,40.00,8,5,16,0.00
2013-2-12,25,19,14,21,15,10,91,85,78,0.00,40.00,6,4,13,0.00
2013-2-13,37,27,18,29,22,15,92,84,68,0.00,40.00,5,3,9,0.34
2013-2-14,29,20,7,24,16,0,92,81,73,0.00,40.00,10,5,28,0.02
2013-2-15,17,8,1,3,0,-4,83,69,43,0.00,40.00,9,4,17,0.00
2013-2-16,20,1,-19,-1,-10,-27,79,61,31,0.00,40.00,7,2,13,0.02
2013-2-17,27,5,-22,7,-8,-31,67,56,37,0.00,40.00,6,3,18,0.02
2013-2-18,31,25,19,25,18,11,91,78,68,0.00,40.00,12,5,24,0.01
2013-2-19,18,6,0,14,-1,-8,84,72,60,0.00,40.00,13,10,26,0.01
2013-2-20,16,8,0,5,1,-6,81,74,58,0.00,40.00,9,6,18,0.00
2013-2-21,30,14,-10,14,5,-17,87,70,46,0.00,40.00,9,5,16,0.02
2013-2-22,25,22,18,22,18,14,92,86,81,0.00,40.00,7,4,16,0.02
2013-2-23,29,24,14,25,21,11,94,89,82,0.00,40.00,6,2,11,0.04
2013-2-24,32,25,12,25,21,9,93,86,69,0.00,40.00,3,1,7,0.08
2013-2-25,33,21,0,25,12,-100,89,79,68,0.00,40.00,5,2,9,0.06
2013-2-26,40,27,13,26,20,10,93,76,48,0.00,40.00,11,5,22,0.09
2013-2-27,30,29,28,24,23,21,86,80,72,0.00,40.00,14,10,27,0.03
2013-2-28,27,23,19,23,17,12,86,76,63,0.00,40.00,12,9,26,0.00
2013-3-1,28,20,12,13,10,7,81,67,40,0.00,40.00,9,7,20,0.00
2013-3-2,27,8,-10,9,-4,-17,81,61,31,0.00,40.00,8,2,17,0.00
2013-3-3,36,12,-15,11,-4,-24,83,55,18,0.00,40.00,6,2,11,0.00
2013-3-4,34,24,12,9,5,-1,75,47,22,0.00,40.00,7,4,14,0.00
2013-3-5,29,24,21,19,13,7,87,63,41,0.00,40.00,8,6,19,0.00
2013-3-6,32,21,8,16,12,3,86,70,41,0.00,40.00,7,4,14,0.00
2013-3-7,39,19,-5,14,6,-12,81,59,35,0.00,40.00,4,1,8,0.00
2013-3-8,45,29,15,25,18,9,78,64,44,0.00,40.00,8,4,15,0.00
2013-3-9,34,31,28,32,28,20,97,87,71,0.00,40.00,5,3,16,0.17
2013-3-10,33,31,27,32,27,22,98,87,76,0.00,40.00,11,8,24,0.19
2013-3-11,27,24,20,25,21,17,94,88,80,0.00,40.00,11,8,26,0.05
2013-3-12,23,20,17,17,15,12,89,81,67,0.00,40.00,10,6,19,0.01
2013-3-13,33,19,7,12,3,-1,84,54,23,0.00,40.00,9,5,17,0.16
2013-3-14,39,19,-5,24,9,-11,83,66,34,0.00,40.00,8,3,15,0.02
2013-3-15,30,25,14,25,17,10,85,73,52,0.00,40.00,9,6,19,0.02
2013-3-16,22,16,8,11,7,-1,83,68,53,0.00,40.00,10,5,20,0.10
2013-3-17,30,11,-16,4,-7,-24,71,47,19,0.00,40.00,7,3,16,0.01
2013-3-18,30,22,15,25,16,7,86,78,61,0.00,40.00,8,5,18,0.06
2013-3-19,27,17,10,12,4,-2,85,60,33,0.00,40.00,13,10,28,0.01
2013-3-20,17,11,3,3,-1,-6,74,58,46,0.00,40.00,9,6,21,0.01
2013-3-21,29,16,4,10,5,-1,81,63,40,0.00,40.00,7,4,14,0.01
2013-3-22,30,14,-9,19,5,-17,85,69,56,0.00,40.00,6,2,14,0.01
2013-3-23,33,21,2,19,14,-4,88,73,55,0.00,40.00,6,3,12,0.00
2013-3-24,32,25,17,23,17,13,85,74,57,0.00,40.00,9,6,23,0.00
2013-3-25,31,24,13,23,18,10,91,79,54,0.00,40.00,10,5,20,0.00
2013-3-26,38,29,19,22,18,16,91,67,40,0.00,40.00,7,3,12,0.00
2013-3-27,44,33,25,20,16,12,77,55,28,0.00,40.00,8,3,17,0.00
2013-3-28,47,37,22,17,14,11,75,42,24,0.00,40.00,6,3,12,0.00
2013-3-29,52,34,11,22,16,7,85,53,23,0.00,40.00,8,2,14,0.00
2013-3-30,44,37,34,38,31,-100,97,85,53,0.00,40.00,5,3,12,0.34
2013-3-31,35,31,22,33,22,7,97,72,40,0.00,40.00,12,4,26,0.03
2013-4-1,30,24,19,14,5,1,79,47,29,0.00,40.00,11,2,24,0.02
2013-4-2,34,24,13,11,6,2,73,47,25,0.00,40.00,9,2,18,0.00
2013-4-3,44,25,1,17,5,-5,81,49,20,0.00,40.00,11,4,22,0.00
2013-4-4,47,39,28,29,20,14,65,48,32,0.00,40.00,12,8,25,0.00
2013-4-5,42,32,15,18,13,8,86,50,25,0.00,40.00,5,2,10,0.00
2013-4-6,41,33,30,35,30,27,97,88,71,0.00,40.00,6,4,18,0.30
2013-4-7,42,34,30,30,29,28,96,83,61,0.00,40.00,8,2,14,0.23
2013-4-8,42,35,29,36,33,27,98,93,75,0.00,40.00,5,2,11,0.78
2013-4-9,39,34,30,33,26,12,100,77,40,0.00,40.00,11,5,20,0.08
2013-4-10,40,34,28,23,16,9,72,48,34,0.00,40.00,10,7,20,0.00
2013-4-11,33,30,25,25,19,11,92,66,43,0.00,40.00,12,9,31,0.02
2013-4-12,33,28,25,27,24,23,93,87,72,0.00,40.00,8,5,18,0.22
2013-4-13,33,26,17,23,20,15,91,79,62,0.00,40.00,7,4,13,0.06
2013-4-14,40,24,5,31,18,0,96,78,47,0.00,40.00,12,5,27,0.04
2013-4-15,41,35,32,34,28,23,99,77,52,0.00,40.00,14,7,31,0.49
2013-4-16,44,36,28,29,25,21,90,65,41,0.00,40.00,8,5,19,0.02
2013-4-17,43,33,23,29,24,21,91,71,46,0.00,40.00,7,3,14,0.00
2013-4-18,33,32,29,31,30,27,96,94,90,0.00,40.00,10,7,21,0.22
2013-4-19,29,25,21,28,23,19,96,92,87,0.00,40.00,11,7,25,0.01
2013-4-20,35,22,2,20,14,-3,89,72,44,0.00,40.00,0,0,9,0.33
2013-4-21,37,29,15,33,24,12,95,80,64,0.00,40.00,4,0,18,0.12
2013-4-22,49,37,30,38,29,17,99,76,32,0.00,40.00,4,0,14,0.18
2013-4-23,37,31,20,29,27,17,97,86,62,0.00,40.00,9,3,20,0.27
2013-4-24,48,31,10,32,20,6,94,67,33,0.00,40.00,1,0,15,0.01
2013-4-25,48,37,25,31,23,15,95,63,27,0.00,40.00,7,1,14,0.03
2013-4-26,65,48,33,36,32,24,92,58,33,0.00,40.00,9,3,16,0.08
2013-4-27,69,50,29,42,34,27,92,59,25,0.00,40.00,7,2,15,0.07
2013-4-28,68,56,43,51,42,38,100,64,35,0.00,40.00,9,4,20,0.15
2013-4-29,71,55,38,50,44,37,100,72,29,0.00,40.00,7,2,11,0.18
2013-4-30,78,63,48,55,43,32,97,53,30,0.00,40.00,12,6,24,0.01
2013-5-1,53,39,31,40,32,25,97,80,34,0.00,40.00,7,4,14,0.16
2013-5-2,31,29,27,30,27,26,96,94,92,0.00,40.00,9,7,19,0.01
2013-5-3,30,28,27,29,27,26,96,94,91,0.00,40.00,10,7,21,0.00
2013-5-4,41,34,30,37,32,29,99,94,85,0.00,40.00,8,6,14,0.82
2013-5-5,54,40,32,39,34,32,100,83,57,0.00,40.00,7,4,13,0.03
2013-5-6,71,51,29,42,36,28,97,63,33,0.00,40.00,7,2,13,0.00
2013-5-7,75,54,32,43,36,30,92,58,22,0.00,40.00,4,1,11,0.00
2013-5-8,79,58,35,49,40,32,87,57,24,0.00,40.00,8,2,18,0.05
2013-5-9,55,42,36,45,38,31,97,87,61,0.00,40.00,8,6,16,0.23
2013-5-10,59,44,30,30,27,23,81,53,30,0.00,40.00,8,5,16,0.01
2013-5-11,43,37,34,33,26,-100,95,69,51,0.00,40.00,13,8,28,0.07
2013-5-12,49,38,28,22,18,11,76,48,22,0.00,40.00,10,7,23,0.02
2013-5-13,59,43,21,30,23,17,88,51,22,0.00,40.00,7,3,18,0.00
2013-5-14,85,62,35,45,40,32,89,47,22,0.00,40.00,10,4,26,0.00
2013-5-15,75,64,52,46,39,32,70,44,22,0.00,40.00,11,7,23,0.00
2013-5-16,71,53,45,45,19,-100,88,47,19,0.00,40.00,8,4,17,0.00
2013-5-17,73,59,50,50,35,-100,73,49,33,0.00,40.00,8,4,15,0.00
2013-5-18,73,60,50,63,55,49,97,84,63,0.00,40.00,6,4,14,1.00
2013-5-19,83,68,55,62,59,52,98,77,46,0.00,40.00,7,4,19,0.18
2013-5-20,74,62,46,63,57,46,100,87,53,0.00,40.00,9,4,20,1.12
2013-5-21,54,45,39,49,43,39,100,93,77,0.00,40.00,8,5,13,1.18
2013-5-22,49,44,40,47,43,39,99,95,86,0.00,40.00,9,6,21,0.28
2013-5-23,51,42,33,39,30,24,90,65,35,0.00,40.00,10,8,21,0.05
2013-5-24,67,48,28,39,31,27,97,59,25,0.00,40.00,6,2,13,0.00
2013-5-25,68,55,40,43,39,35,93,60,29,0.00,40.00,5,2,12,0.00
2013-5-26,71,56,36,40,34,30,95,52,24,0.00,40.00,7,3,19,0.00
2013-5-27,71,58,44,43,39,35,78,52,33,0.00,40.00,7,4,17,0.00
2013-5-28,63,58,53,54,48,41,96,70,58,0.00,40.00,5,3,10,0.00
2013-5-29,82,65,54,64,56,53,99,78,39,0.00,40.00,7,4,19,0.01
2013-5-30,78,69,61,65,62,59,96,80,58,0.00,40.00,7,4,20,0.02
2013-5-31,79,66,54,63,56,52,95,73,39,0.00,40.00,11,6,32,0.57
2013-6-1,70,54,40,58,50,38,99,88,64,0.00,40.00,9,4,20,0.59
2013-6-2,62,47,39,40,37,34,97,72,35,0.00,40.00,7,5,17,0.03
2013-6-3,63,50,31,42,33,25,96,58,27,0.00,40.00,7,3,15,0.01
2013-6-4,64,54,46,52,43,32,96,68,50,0.00,40.00,5,2,12,0.06
2013-6-5,53,50,50,50,49,48,97,94,83,0.00,40.00,6,4,15,1.66
2013-6-6,54,51,47,50,48,46,97,90,81,0.00,40.00,6,4,12,0.88
2013-6-7,68,54,38,51,44,37,98,73,39,0.00,40.00,4,2,11,0.01
2013-6-8,74,59,46,51,48,45,97,70,38,0.00,40.00,5,2,13,0.00
2013-6-9,64,56,45,56,51,44,97,84,69,0.00,40.00,6,4,14,0.12
2013-6-10,77,67,58,60,58,55,90,74,53,0.00,40.00,6,3,12,0.02
2013-6-11,78,65,51,62,55,48,97,73,39,0.00,40.00,6,2,14,0.00
2013-6-12,80,65,47,53,48,45,96,60,34,0.00,40.00,7,2,15,0.00
2013-6-13,69,60,51,50,47,44,89,66,42,0.00,40.00,10,5,18,0.00
2013-6-14,78,63,41,52,47,40,96,61,34,0.00,40.00,5,2,11,0.00
2013-6-15,70,64,59,65,59,51,99,85,61,0.00,40.00,6,2,13,0.22
2013-6-16,80,64,54,59,54,47,100,76,32,0.00,40.00,8,4,22,0.23
2013-6-17,64,56,45,56,51,43,98,84,67,0.00,40.00,8,4,16,0.21
2013-6-18,74,56,37,45,40,35,97,61,27,0.00,40.00,6,3,19,0.01
2013-6-19,77,62,41,56,49,40,95,67,44,0.00,40.00,7,3,14,0.00
2013-6-20,79,66,59,65,59,55,95,80,62,0.00,40.00,4,3,10,0.50
2013-6-22,77,70,62,66,64,61,95,83,69,0.00,40.00,5,2,12,0.02
2013-6-23,83,73,64,67,64,61,95,74,48,0.00,40.00,13,5,24,0.05
2013-6-24,82,73,61,69,63,57,99,72,45,0.00,40.00,7,3,16,0.05
2013-6-25,88,74,59,67,64,58,97,73,47,0.00,40.00,4,2,11,0.00
2013-6-26,85,70,60,71,66,59,98,86,59,0.00,40.00,9,3,20,0.16
2013-6-27,83,70,62,65,61,55,100,76,41,0.00,40.00,8,4,19,0.18
2013-6-28,69,62,57,63,58,55,96,87,69,0.00,40.00,7,4,16,0.25
2013-6-29,70,60,50,57,52,45,98,77,46,0.00,40.00,9,5,20,0.01
2013-6-30,79,62,41,52,45,40,96,61,28,0.00,40.00,8,3,16,0.00
2013-7-1,78,64,49,53,49,46,95,64,37,0.00,40.00,8,3,17,0.00
2013-7-2,77,60,40,53,43,38,95,60,26,0.00,40.00,6,2,14,0.00
2013-7-3,82,64,43,54,48,41,94,61,30,0.00,40.00,5,2,11,0.00
2013-7-4,83,70,55,60,58,54,96,68,44,0.00,40.00,8,3,18,0.00
2013-7-5,84,75,61,60,57,53,87,57,35,0.00,40.00,9,5,21,0.00
2013-7-6,88,75,70,70,62,58,86,65,46,0.00,40.00,8,5,19,0.00
2013-7-7,85,74,62,71,67,58,98,80,60,0.00,40.00,6,4,13,1.33
2013-7-8,80,63,54,68,59,53,98,89,64,0.00,40.00,5,3,11,0.55
2013-7-9,76,67,55,71,65,54,98,92,84,0.00,40.00,5,2,14,0.36
2013-7-10,74,63,55,62,51,-100,93,70,45,0.00,40.00,8,5,19,0.04
2013-7-11,82,66,47,60,53,46,96,68,35,0.00,40.00,6,2,12,0.00
2013-7-12,84,71,55,60,57,52,91,65,42,0.00,40.00,9,5,21,0.01
2013-7-13,82,73,63,66,60,56,90,66,55,0.00,40.00,7,4,17,0.07
2013-7-14,85,72,64,66,62,59,93,73,47,0.00,40.00,10,3,18,0.12
2013-7-15,86,73,58,66,62,57,96,73,44,0.00,40.00,7,2,13,0.06
2013-7-16,89,84,71,70,68,66,90,61,49,0.00,40.00,8,5,18,0.08
2013-7-17,88,79,69,69,67,66,92,70,49,0.00,40.00,8,4,19,0.00
2013-7-18,90,81,70,70,68,67,90,65,47,0.00,40.00,12,7,23,0.01
2013-7-19,79,74,62,72,63,54,95,71,47,0.00,40.00,10,6,22,0.57
2013-7-20,69,61,50,57,48,-100,92,67,39,0.00,40.00,6,4,15,0.15
2013-7-21,74,62,48,59,53,44,92,74,54,0.00,40.00,4,3,12,0.00
2013-7-22,81,68,58,69,60,52,95,79,53,0.00,40.00,10,5,21,0.00
2013-7-23,67,59,50,50,48,43,93,68,45,0.00,40.00,8,5,19,0.00
2013-7-24,71,58,42,52,48,40,94,72,46,0.00,40.00,7,2,15,0.00
2013-7-25,79,65,55,63,56,51,96,75,45,0.00,40.00,7,3,18,0.33
2013-7-26,67,55,45,57,52,44,98,88,67,0.00,40.00,9,4,20,0.27
2013-7-27,54,48,44,49,45,42,95,88,78,0.00,40.00,8,5,18,0.09
2013-7-28,58,52,46,54,50,44,97,91,83,0.00,40.00,7,4,16,0.03
2013-7-29,75,58,39,56,49,38,96,74,45,0.00,40.00,4,2,11,0.01
2013-7-30,71,62,53,61,57,51,96,85,63,0.00,40.00,7,2,14,0.00
2013-7-31,75,65,54,61,56,47,100,75,37,0.00,40.00,10,4,22,0.00
2013-8-1,74,61,50,56,51,48,95,74,42,0.00,40.00,8,3,17,0.00
2013-8-2,72,62,50,55,51,48,97,73,44,0.00,40.00,8,4,16,0.04
2013-8-3,72,58,41,52,47,39,94,71,42,0.00,40.00,9,3,20,0.00
2013-8-4,72,57,39,52,46,38,95,71,41,0.00,40.00,6,2,10,0.00
2013-8-5,70,58,47,63,56,45,96,92,77,0.00,40.00,4,2,9,0.87
2013-8-6,75,66,61,63,60,56,97,83,52,0.00,40.00,6,3,13,0.18
2013-8-7,71,62,49,60,52,43,98,76,40,0.00,40.00,7,4,16,0.18
2013-8-8,71,57,42,60,51,41,96,82,51,0.00,40.00,6,2,22,0.06
2013-8-9,68,60,51,54,50,45,97,74,48,0.00,40.00,7,3,17,0.06
2013-8-10,71,60,46,56,52,45,96,75,51,0.00,40.00,4,2,11,0.00
2013-8-11,76,59,42,57,50,41,95,75,44,0.00,40.00,5,1,10,0.00
2013-8-12,72,60,45,56,52,44,95,76,47,0.00,40.00,9,4,22,0.01
2013-8-13,66,52,36,51,41,-100,95,73,47,0.00,40.00,7,3,15,0.01
2013-8-14,69,52,35,49,42,33,95,73,41,0.00,40.00,5,2,13,0.00
2013-8-15,77,54,42,56,38,-100,93,68,40,0.00,40.00,6,2,13,0.00
2013-8-16,79,61,43,57,46,-100,95,68,37,0.00,40.00,5,1,11,0.00
2013-8-17,79,64,45,57,49,-100,93,64,40,0.00,40.00,9,3,17,0.00
2013-8-18,80,65,46,57,52,44,94,66,39,0.00,40.00,9,3,19,0.00
2013-8-19,82,66,62,64,49,-100,84,70,53,0.00,40.00,9,5,20,0.00
2013-8-20,86,74,63,69,64,-100,94,74,56,0.00,40.00,7,5,17,0.00
2013-8-21,83,73,59,72,67,58,96,82,63,0.00,40.00,7,4,14,0.22
2013-8-22,77,66,49,57,50,44,96,64,32,0.00,40.00,7,3,13,0.22
2013-8-23,82,62,41,57,49,39,95,68,33,0.00,40.00,6,2,15,0.00
2013-8-24,82,70,57,67,59,-100,96,70,52,0.00,40.00,8,5,25,0.00
2013-8-25,92,81,72,72,70,68,88,70,49,0.00,40.00,10,7,22,0.00
2013-8-26,84,76,68,75,71,66,97,86,71,0.00,40.00,7,3,23,2.10
2013-8-27,79,72,69,72,69,67,98,93,80,0.00,40.00,7,3,17,2.27
2013-8-28,84,76,69,68,65,61,94,70,47,0.00,40.00,4,2,7,0.00
2013-8-29,82,70,62,70,67,61,97,88,67,0.00,40.00,7,2,25,0.51
2013-8-30,77,69,57,69,64,56,97,84,60,0.00,40.00,9,4,18,0.26
2013-8-31,83,67,54,64,58,-100,99,77,51,0.00,40.00,6,2,14,0.00
2013-9-1,73,65,56,63,59,54,95,81,61,0.00,40.00,9,6,20,0.04
2013-9-2,59,53,43,52,48,42,95,85,67,0.00,40.00,7,4,14,0.01
2013-9-3,74,56,38,54,47,37,96,77,47,0.00,40.00,7,3,14,0.01
2013-9-4,69,59,45,57,52,43,94,78,50,0.00,40.00,7,3,13,0.00
2013-9-5,76,58,39,54,46,38,95,70,38,0.00,40.00,4,2,8,0.00
2013-9-6,81,67,53,68,59,49,93,78,60,0.00,40.00,7,3,16,0.00
2013-9-7,82,67,58,69,61,-100,96,81,62,0.00,40.00,9,3,17,0.00
2013-9-8,71,59,42,56,50,41,95,75,50,0.00,40.00,6,2,14,0.00
2013-9-9,80,66,57,73,63,52,96,89,75,0.00,40.00,5,2,11,0.19
2013-9-10,75,69,65,68,65,62,98,88,68,0.00,40.00,7,4,14,0.03
2013-9-11,77,66,56,62,58,50,98,78,44,0.00,40.00,8,4,19,0.03
2013-9-12,62,54,43,54,48,41,98,83,50,0.00,40.00,9,4,18,0.04
2013-9-13,63,48,33,47,41,32,95,79,47,0.00,40.00,5,1,10,0.00
2013-9-14,67,51,35,53,43,-100,96,77,50,0.00,40.00,9,2,17,0.05
2013-9-15,55,49,34,53,46,33,97,90,75,0.00,40.00,8,2,18,0.16
2013-9-16,64,46,29,43,36,28,96,74,39,0.00,40.00,4,1,8,0.02
2013-9-17,68,54,38,49,42,36,93,68,42,0.00,40.00,7,4,17,0.00
2013-9-18,65,57,55,63,55,51,97,93,82,0.00,40.00,5,3,13,0.03
2013-9-19,76,67,63,69,65,62,98,92,79,0.00,40.00,6,3,21,0.06
2013-9-20,65,58,48,64,54,44,95,85,65,0.00,40.00,8,5,17,0.02
2013-9-21,56,47,35,45,38,-100,94,76,52,0.00,40.00,9,4,17,0.01
2013-9-22,63,44,28,43,36,27,95,75,44,0.00,40.00,5,2,11,0.01
2013-9-23,69,53,41,50,45,39,94,76,45,0.00,40.00,5,3,15,0.00
2013-9-24,74,55,42,50,46,41,97,76,40,0.00,40.00,5,2,10,0.00
2013-9-25,74,53,37,53,45,36,96,78,37,0.00,40.00,4,1,9,0.00
2013-9-26,73,56,42,52,47,41,97,75,38,0.00,40.00,5,2,12,0.00
2013-9-27,77,65,53,57,52,47,87,64,48,0.00,40.00,8,4,18,0.00
2013-9-28,74,60,51,60,50,-100,94,74,55,0.00,40.00,11,6,27,0.33
2013-9-29,70,54,40,47,43,38,96,72,32,0.00,40.00,7,4,15,0.03
2013-9-30,71,60,51,48,46,44,77,61,43,0.00,40.00,10,5,26,0.00
2013-10-1,62,56,51,35,34,33,53,45,34,0.00,40.00,4,2,11,0.00
2013-10-2,75,52,33,50,36,30,92,62,19,0.00,40.00,4,2,10,0.12
2013-10-3,58,53,51,53,50,48,96,90,74,0.00,40.00,6,3,13,0.45
2013-10-4,58,53,50,52,50,49,95,88,73,0.00,40.00,9,5,16,0.12
2013-10-5,56,53,51,54,51,48,96,93,89,0.00,40.00,10,6,21,0.60
2013-10-6,57,51,45,52,48,43,97,92,76,0.00,40.00,8,4,17,0.43
2013-10-7,58,46,35,43,39,34,97,79,45,0.00,40.00,7,3,15,0.01
2013-10-8,73,54,31,43,38,30,95,61,29,0.00,40.00,11,4,25,0.01
2013-10-9,73,62,50,48,45,41,82,56,37,0.00,40.00,10,5,18,0.00
2013-10-10,73,58,38,47,43,36,95,63,33,0.00,40.00,6,3,15,0.00
2013-10-11,73,60,47,53,49,44,92,69,46,0.00,40.00,9,5,22,0.00
2013-10-12,61,54,45,53,43,-100,91,67,50,0.00,40.00,11,7,21,0.00
2013-10-13,56,46,31,43,35,26,91,68,33,0.00,40.00,6,4,13,0.00
2013-10-14,55,43,27,36,31,25,93,68,42,0.00,40.00,6,2,14,0.00
2013-10-15,52,49,45,51,46,39,97,91,68,0.00,40.00,8,4,16,1.16
2013-10-16,46,41,30,45,38,29,96,89,69,0.00,40.00,8,4,17,0.32
2013-10-17,50,38,27,41,34,26,96,88,67,0.00,40.00,3,1,7,0.03
2013-10-18,45,40,33,41,36,27,97,88,49,0.00,40.00,8,3,18,0.33
2013-10-19,42,36,31,38,32,-100,95,88,75,0.00,40.00,6,2,13,0.11
2013-10-20,39,32,29,35,31,28,96,94,81,0.00,40.00,4,2,9,0.11
2013-10-21,33,31,29,32,27,24,96,87,73,0.00,40.00,9,7,20,0.06
2013-10-22,35,32,29,30,28,26,94,84,71,0.00,40.00,7,4,17,0.16
2013-10-23,36,30,26,28,24,21,91,80,62,0.00,40.00,6,4,15,0.05
2013-10-24,36,32,28,29,26,23,93,79,63,0.00,40.00,7,4,14,0.04
2013-10-25,47,36,25,35,27,23,92,73,49,0.00,40.00,11,6,22,0.03
2013-10-26,47,38,34,34,28,-100,80,69,56,0.00,40.00,11,6,25,0.01
2013-10-27,49,37,30,32,28,26,88,71,48,0.00,40.00,9,6,21,0.00
2013-10-28,40,31,23,29,18,-100,90,63,36,0.00,40.00,9,4,19,0.01
2013-10-29,35,29,20,31,25,17,94,84,66,0.00,40.00,3,2,8,0.04
2013-10-30,48,40,33,47,39,31,98,96,93,0.00,40.00,4,2,12,0.07
2013-10-31,52,47,43,51,47,42,100,98,93,0.00,40.00,6,3,12,0.22
2013-11-1,43,39,36,42,38,34,98,96,92,0.00,40.00,8,5,16,0.16
2013-11-2,40,34,25,33,29,-100,95,84,61,0.00,40.00,5,3,10,0.05
2013-11-3,46,34,20,34,27,18,96,78,53,0.00,40.00,7,3,22,0.01
2013-11-4,43,41,36,42,36,31,95,83,68,0.00,40.00,8,6,22,0.32
2013-11-5,44,35,26,33,29,25,97,82,51,0.00,40.00,6,3,13,0.02
2013-11-6,33,30,25,31,26,21,97,87,78,0.00,40.00,8,5,15,0.18
2013-11-7,36,27,19,26,21,16,89,78,62,0.00,40.00,7,3,14,0.05
2013-11-8,35,28,15,32,23,12,91,81,70,0.00,40.00,7,4,18,0.01
2013-11-9,36,34,33,35,30,-100,97,89,81,0.00,40.00,9,6,25,0.09
2013-11-10,40,35,31,30,26,22,93,70,52,0.00,40.00,8,6,18,0.01
2013-11-11,31,22,15,29,11,7,94,65,48,0.00,40.00,11,8,22,0.01
2013-11-12,27,19,12,8,4,2,77,55,33,0.00,40.00,7,5,16,0.00
2013-11-13,45,31,16,29,18,5,76,59,43,0.00,40.00,11,8,25,0.00
2013-11-14,44,36,28,31,28,25,88,75,59,0.00,40.00,6,3,10,0.00
2013-11-15,50,36,26,35,30,25,96,81,54,0.00,40.00,8,3,15,0.00
2013-11-16,50,40,36,50,36,-100,100,87,76,0.00,40.00,6,4,16,0.70
2013-11-17,51,40,31,50,38,28,99,92,83,0.00,40.00,12,6,27,0.38
2013-11-18,29,26,24,26,18,15,89,72,64,0.00,40.00,12,9,27,0.01
2013-11-19,38,29,14,20,16,11,88,61,43,0.00,40.00,7,4,20,0.00
2013-11-20,41,35,31,30,23,17,95,64,44,0.00,40.00,7,5,22,0.00
2013-11-21,33,29,22,33,27,19,99,94,89,0.00,40.00,9,5,18,0.00
2013-11-22,30,22,12,19,11,2,88,67,32,0.00,40.00,10,6,20,0.01
2013-11-23,12,7,-1,4,-4,-100,77,63,42,0.00,40.00,9,6,22,0.01
2013-11-24,22,9,-7,10,-3,-14,76,61,44,0.00,40.00,14,6,29,0.00
2013-11-25,34,29,22,24,19,10,78,68,60,0.00,40.00,11,7,27,0.00
2013-11-26,27,14,10,16,5,-3,83,68,48,0.00,40.00,10,7,24,0.00
2013-11-27,23,17,12,15,12,8,87,82,66,0.00,40.00,5,2,11,0.03
2013-11-28,23,18,15,15,13,11,88,81,69,0.00,40.00,6,3,11,0.01
2013-11-29,24,17,2,16,11,-2,86,76,63,0.00,40.00,5,3,15,0.00
2013-11-30,38,28,24,23,19,-100,84,72,55,0.00,40.00,4,3,12,0.07
2013-12-1,33,29,27,27,25,22,96,85,71,0.00,40.00,4,2,8,0.01
2013-12-2,33,27,15,27,23,12,91,86,78,0.00,40.00,7,3,15,0.01
2013-12-3,30,27,24,29,25,21,97,91,87,0.00,40.00,9,6,19,0.00
2013-12-4,32,28,24,32,26,20,99,93,86,0.00,40.00,7,5,16,0.00
2013-12-5,27,9,-1,25,3,-7,93,77,70,0.00,40.00,9,7,19,0.00
2013-12-6,6,-4,-12,-4,-11,-19,74,71,64,0.00,40.00,5,4,11,0.00
2013-12-7,1,-10,-19,-9,-19,-100,72,66,60,0.00,40.00,6,3,11,0.00
2013-12-8,7,-2,-21,3,-9,-29,82,73,64,0.00,40.00,3,2,6,0.00
2013-12-9,8,-1,-13,4,-7,-20,82,73,64,0.00,40.00,8,4,17,0.00
2013-12-10,7,-4,-12,-2,-11,-19,73,70,64,0.00,40.00,7,4,17,0.00
2013-12-11,-2,-8,-15,-13,-17,-23,73,66,56,0.00,40.00,7,5,13,0.00
2013-12-12,8,1,-11,2,-6,-19,79,72,64,0.00,40.00,6,4,12,0.00
2013-12-13,10,4,-1,2,-2,-7,80,74,61,0.00,40.00,6,4,11,0.00
2013-12-14,16,8,1,9,1,-100,85,76,71,0.00,40.00,7,3,14,0.00
2013-12-15,5,-5,-21,-1,-12,-29,76,69,59,0.00,40.00,8,5,16,0.00
2013-12-16,7,-3,-23,3,-9,-31,84,74,63,0.00,40.00,7,3,14,0.00
2013-12-17,23,16,9,20,12,4,89,85,76,0.00,40.00,7,4,16,0.00
2013-12-18,26,9,-8,15,2,-14,87,74,56,0.00,40.00,6,2,12,0.10
2013-12-19,17,13,4,11,9,-1,87,81,74,0.00,40.00,9,5,17,0.01
2013-12-20,23,13,-2,13,8,-8,86,80,66,0.00,40.00,4,2,9,0.02
2013-12-21,22,16,11,16,11,-100,86,83,72,0.00,40.00,4,1,8,0.02
2013-12-22,24,20,15,19,16,11,90,85,79,0.00,40.00,5,4,12,0.00
2013-12-23,18,13,7,11,8,3,85,80,65,0.00,40.00,6,3,12,0.00
2013-12-24,16,5,-13,5,-2,-20,82,74,61,0.00,40.00,7,3,16,0.00
2013-12-25,15,10,6,10,5,1,84,79,71,0.00,40.00,7,5,15,0.00
2013-12-26,15,9,2,10,3,-3,88,77,66,0.00,40.00,5,2,10,0.00
2013-12-27,30,22,13,25,19,10,91,88,80,0.00,40.00,10,4,22,0.01
2013-12-28,34,27,19,31,24,-100,96,91,86,0.00,40.00,12,4,23,0.04
2013-12-29,16,-1,-17,12,-8,-25,83,71,61,0.00,40.00,11,7,23,0.01
2013-12-30,-1,-13,-27,-14,-23,-36,70,62,46,0.00,40.00,5,2,10,0.00
2013-12-31,-4,-14,-25,-18,-22,-34,69,64,51,0.00,40.00,6,3,11,0.00
2014-1-1,1,-7,-20,-8,-14,-28,74,69,64,0.00,40.00,4,2,8,0.00
2014-1-2,6,-8,-24,-5,-16,-32,74,68,56,0.00,40.00,5,2,10,0.00